Temp
26 25 25 27 29 33 30 31 33 31 31 30 25 22 22 20 27 21 20 20 19 19 20 19 19 19 19 19 19 19 19 19 19 19 19 19 19 19 19 19 19 19 19 19 19 19 19 19 19
27 25 28 29 33 31 30 31 30 31 31 30 29 27 26 24 23 21 20 19 19 19 19 19 19 19 19 19 19 19 19 19 19 19 19 19 19 19 19 19 19 19 19 19 19 19 19 19 19
27 25 29 33 33 31 30 32 32 32 31 30 28 27 26 25 23 21 20 20 19 19 20 19 19 19 19 19 19 19 19 19 19 19 19 19 19 19 19 19 19 18 19 19 19 19 19 19 19
28 28 31 34 32 33 32 32 32 32 30 28 28 27 26 24 22 21 20 19 19 19 20 19 19 19 19 19 19 19 19 19 19 19 19 19 19 19 19 19 19 19 19 19 19 19 19 19 19
25 24 33 33 33 34 34 33 32 32 31 29 27 27 26 23 22 21 20 20 19 19 20 20 20 20 19 19 20 20 20 19 19 19 19 19 19 19 19 19 19 19 19 19 19 19 19 19 19
27 28 33 32 33 32 34 33 33 32 30 28 27 26 25 24 23 22 21 20 20 19 19 20 20 19 19 19 19 19 20 19 19 19 19 19 19 19 19 19 19 19 19 19 19 19 19 19 19
26 29 33 31 29 27 25 33 33 31 29 29 27 26 25 25 24 23 23 21 21 19 18 20 20 20 20 19 19 19 19 19 19 19 19 19 19 19 19 19 19 19 19 19 19 19 19 19 19
26 27 33 32 31 28 27 33 32 31 30 29 27 26 26 25 25 23 23 21 20 20 19 18 19 20 19 19 19 19 19 19 19 19 19 19 19 19 19 18 18 19 19 19 19 19 19 19 19
30 31 34 33 34 32 33 33 32 31 30 29 29 26 25 25 25 24 22 21 20 20 19 19 19 18 19 19 19 19 19 19 19 19 19 19 18 18 18 19 19 18 19 19 19 19 19 19 19
36 34 34 35 36 28 24 30 32 31 31 30 28 26 25 25 25 24 23 22 22 20 20 19 19 19 19 19 19 19 19 19 19 19 18 19 18 18 18 18 18 18 19 19 18 18 18 18 18
37 36 36 35 34 30 26 29 28 21 31 29 27 26 25 25 25 25 24 23 23 22 22 21 20 20 19 19 20 20 20 19 19 19 19 19 19 18 18 18 18 18 19 19 18 19 18 18 18
36 36 36 36 33 33 34 29 23 22 24 28 27 26 25 25 25 25 25 23 23 22 22 21 21 20 20 20 20 20 19 20 20 20 19 19 19 18 18 19 19 19 19 19 19 19 19 18 19
36 36 35 35 34 33 32 31 27 25 27 28 27 26 25 25 25 24 24 23 22 22 22 21 21 20 19 20 20 20 20 20 20 19 19 19 19 19 19 19 18 18 18 18 18 18 18 18 18
36 36 35 35 34 33 32 31 29 29 28 27 26 26 26 25 25 24 24 23 22 22 22 21 21 20 20 20 20 19 20 19 20 20 19 20 19 18 19 18 18 18 18 18 18 18 18 18 18
35 35 35 35 34 33 33 31 29 28 28 27 27 26 26 26 25 25 24 23 22 22 22 22 21 20 20 20 20 20 20 20 20 20 20 20 19 19 18 18 19 19 18 18 18 18 18 18 18
35 35 34 35 32 30 32 29 30 29 28 28 28 28 27 26 25 24 24 23 23 22 22 21 21 21 20 20 20 20 20 19 19 20 20 20 19 19 18 19 19 19 19 19 18 18 17 17 17
35 34 33 33 32 32 31 30 30 30 30 29 29 28 27 26 26 24 23 23 23 22 22 21 21 21 20 20 20 19 18 19 19 19 20 20 19 19 18 18 18 18 18 18 17 17 17 17 17
34 33 34 33 33 32 32 31 32 31 31 30 29 28 28 27 26 25 23 23 22 22 21 21 21 21 20 19 19 19 18 19 19 19 19 19 19 19 18 18 18 18 18 18 18 17 17 17 17
36 36 33 34 33 32 32 31 32 32 31 30 30 28 28 28 27 26 25 23 23 23 22 21 21 20 20 20 20 19 19 19 20 20 19 19 19 18 18 18 18 18 17 17 17 17 17 17 17
36 36 35 36 36 35 31 31 32 33 32 31 30 29 29 28 27 26 25 25 24 23 22 22 21 20 20 20 20 20 20 19 19 19 19 19 18 18 17 17 17 17 17 17 17 17 17 17 17
36 35 35 35 36 35 34 31 27 31 33 32 31 30 29 29 27 26 25 25 24 23 22 22 21 20 20 20 20 20 19 19 20 19 19 18 18 18 17 16 16 16 16 16 16 16 16 16 16
34 36 36 36 35 33 34 31 27 30 32 33 32 31 30 29 28 26 25 25 25 23 22 22 21 20 20 20 20 20 20 20 20 20 19 19 18 18 17 17 16 16 16 16 16 16 16 16 16
34 36 35 36 35 34 34 32 30 32 31 32 32 31 31 30 29 27 26 26 25 24 23 21 20 20 20 22 21 20 19 19 19 19 18 18 17 17 17 16 15 15 15 15 15 15 15 15 15
36 35 36 35 34 32 34 33 29 29 31 32 32 32 31 31 30 29 27 26 26 24 23 21 20 22 22 22 20 19 18 18 18 18 17 17 17 17 17 16 16 16 15 15 15 15 15 15 15
36 34 32 31 31 31 35 34 33 33 34 32 25 23 32 31 30 29 28 26 26 24 23 21 21 22 23 21 19 18 18 17 17 17 17 17 17 17 16 16 15 14 14 14 14 14 15 14 14
34 34 32 30 32 33 35 32 33 35 35 32 31 30 32 31 31 29 29 27 25 24 23 21 21 23 22 20 19 18 18 17 17 17 17 17 16 16 16 16 14 14 14 14 14 14 14 14 14
34 33 35 34 35 33 34 34 35 35 35 34 34 34 32 32 31 30 29 27 25 24 23 22 21 22 22 19 18 18 17 17 18 17 17 17 16 16 16 15 15 14 15 15 15 14 14 14 14
35 35 33 33 31 31 33 33 33 33 33 34 34 34 33 31 31 30 29 27 25 23 23 22 21 21 21 19 19 18 17 17 16 16 17 16 16 16 15 15 14 14 14 14 14 14 14 14 14
35 34 34 35 34 32 32 30 33 33 33 34 34 33 33 33 31 30 29 27 25 24 22 22 21 20 19 19 18 18 18 17 16 16 15 15 15 15 15 14 14 14 14 14 14 14 14 13 13
36 34 34 32 31 32 32 32 35 34 34 34 33 33 32 32 31 30 29 27 24 24 23 22 21 20 19 18 18 18 17 17 16 16 15 15 15 15 14 14 14 14 14 14 14 14 14 14 14
Height
1475 1475 1476 1480 1480 1468 1489 1481 1467 1476 1481 1485 1497 1500 1510 1494 1497 1531 1537 1539 1541 1541 1543 1544 1545 1547 1550 1552 1554 1556 1558 1560 1562 1565 1565 1567 1570 1572 1573 1574 1576 1577 1579 1580 1580 1580 1579 1578 1578
1474 1474 1478 1471 1467 1486 1492 1480 1484 1485 1486 1487 1494 1502 1505 1512 1511 1526 1537 1541 1543 1545 1544 1546 1548 1551 1553 1555 1557 1559 1561 1563 1566 1568 1568 1570 1572 1574 1576 1577 1578 1579 1581 1582 1582 1581 1580 1579 1579
1476 1477 1478 1459 1467 1486 1492 1481 1482 1483 1487 1491 1499 1504 1508 1517 1524 1530 1539 1542 1546 1546 1547 1549 1552 1553 1556 1558 1560 1562 1564 1566 1568 1570 1571 1574 1575 1576 1578 1579 1580 1581 1582 1583 1582 1582 1581 1580 1580
1486 1473 1470 1463 1478 1476 1479 1481 1485 1487 1493 1500 1504 1510 1516 1523 1529 1536 1540 1545 1547 1549 1550 1552 1554 1557 1559 1561 1562 1565 1567 1569 1571 1573 1574 1577 1578 1579 1580 1581 1582 1583 1584 1584 1583 1582 1581 1580 1580
1501 1483 1465 1473 1475 1472 1475 1479 1484 1488 1495 1501 1509 1516 1520 1528 1534 1539 1543 1546 1549 1550 1553 1554 1557 1559 1560 1563 1565 1567 1569 1571 1573 1575 1577 1578 1580 1581 1583 1584 1585 1585 1585 1585 1584 1582 1581 1580 1581
1495 1494 1473 1481 1477 1481 1477 1483 1484 1490 1500 1508 1513 1518 1526 1532 1536 1540 1543 1546 1551 1553 1555 1556 1559 1561 1563 1565 1567 1569 1571 1573 1575 1576 1578 1580 1581 1582 1583 1583 1583 1584 1585 1585 1584 1582 1581 1580 1580
1496 1491 1473 1480 1491 1500 1494 1484 1490 1496 1503 1509 1516 1521 1529 1533 1538 1541 1544 1549 1552 1556 1556 1558 1561 1563 1565 1567 1568 1570 1572 1575 1576 1578 1579 1580 1581 1581 1583 1584 1583 1583 1583 1585 1584 1582 1580 1579 1579
1492 1491 1474 1478 1486 1498 1492 1484 1491 1497 1503 1509 1514 1523 1528 1534 1537 1542 1548 1550 1553 1557 1559 1560 1563 1564 1566 1568 1570 1571 1573 1575 1577 1578 1580 1581 1580 1581 1590 1589 1584 1581 1583 1584 1583 1583 1580 1579 1578
1475 1486 1475 1477 1472 1483 1483 1488 1495 1501 1506 1509 1512 1518 1527 1534 1539 1543 1547 1552 1555 1557 1561 1563 1565 1566 1568 1569 1570 1572 1574 1575 1576 1578 1580 1582 1580 1578 1579 1583 1588 1581 1581 1583 1583 1582 1580 1578 1576
1467 1482 1472 1468 1463 1483 1490 1492 1496 1504 1506 1509 1516 1524 1530 1534 1539 1543 1548 1551 1555 1557 1560 1564 1567 1569 1570 1570 1572 1573 1574 1576 1577 1578 1580 1582 1582 1583 1584 1587 1585 1581 1582 1582 1582 1582 1579 1578 1577
1462 1465 1464 1468 1471 1477 1487 1498 1499 1522 1505 1512 1518 1525 1531 1535 1540 1544 1547 1552 1555 1557 1560 1563 1566 1568 1571 1570 1572 1573 1575 1575 1577 1579 1580 1581 1581 1581 1583 1583 1580 1582 1583 1582 1582 1581 1580 1577 1578
1466 1464 1467 1471 1477 1482 1485 1497 1513 1517 1515 1515 1521 1527 1532 1537 1541 1545 1549 1553 1555 1559 1561 1562 1565 1568 1570 1570 1574 1575 1576 1577 1577 1578 1580 1581 1582 1582 1582 1582 1582 1582 1583 1583 1582 1580 1578 1578 1577
1466 1468 1473 1477 1481 1485 1492 1500 1513 1517 1517 1520 1524 1530 1534 1537 1542 1546 1550 1554 1556 1559 1562 1564 1565 1568 1570 1572 1574 1575 1576 1577 1576 1577 1579 1579 1581 1581 1581 1581 1581 1581 1581 1580 1578 1576 1576 1576 1576
1467 1471 1475 1476 1482 1487 1493 1501 1510 1516 1519 1523 1528 1531 1534 1538 1542 1547 1550 1553 1557 1560 1562 1564 1565 1567 1569 1570 1571 1572 1574 1575 1577 1576 1577 1579 1578 1578 1579 1578 1577 1578 1578 1577 1576 1574 1574 1574 1574
1471 1475 1475 1479 1484 1489 1493 1504 1512 1517 1522 1525 1527 1530 1533 1538 1542 1546 1550 1553 1556 1559 1561 1563 1565 1565 1567 1569 1570 1571 1572 1574 1575 1576 1576 1575 1575 1575 1575 1574 1575 1575 1574 1572 1573 1572 1571 1571 1571
1472 1473 1485 1477 1486 1498 1498 1517 1512 1516 1519 1522 1525 1527 1532 1537 1541 1545 1548 1552 1555 1557 1559 1562 1563 1564 1565 1566 1568 1568 1570 1571 1573 1574 1574 1573 1572 1572 1571 1571 1572 1572 1571 1571 1571 1570 1569 1570 1569
1472 1482 1486 1485 1483 1491 1502 1508 1508 1511 1514 1518 1521 1525 1530 1535 1539 1542 1546 1550 1553 1555 1558 1561 1563 1564 1564 1565 1565 1567 1569 1569 1570 1571 1572 1572 1571 1570 1569 1569 1569 1569 1568 1567 1567 1567 1567 1566 1566
1479 1483 1475 1483 1481 1488 1494 1500 1503 1505 1510 1516 1519 1524 1528 1532 1536 1540 1543 1547 1551 1554 1556 1559 1562 1564 1563 1564 1565 1566 1566 1567 1568 1568 1568 1568 1568 1568 1567 1566 1566 1567 1566 1565 1564 1564 1564 1562 1561
1456 1462 1480 1474 1476 1484 1492 1495 1496 1498 1505 1512 1516 1522 1525 1528 1532 1538 1541 1544 1548 1552 1556 1558 1560 1563 1564 1564 1565 1564 1565 1565 1565 1566 1566 1566 1566 1564 1563 1563 1563 1564 1563 1562 1561 1560 1559 1558 1558
1454 1461 1466 1465 1464 1471 1492 1497 1492 1495 1497 1505 1511 1518 1521 1525 1529 1535 1539 1544 1547 1551 1553 1557 1559 1560 1561 1562 1563 1563 1564 1564 1563 1563 1562 1563 1562 1562 1562 1562 1561 1561 1560 1560 1559 1558 1556 1554 1555
1458 1465 1463 1466 1463 1468 1477 1495 1508 1499 1495 1498 1505 1512 1516 1521 1527 1533 1537 1541 1545 1549 1551 1555 1557 1558 1560 1560 1561 1561 1561 1562 1563 1563 1563 1561 1561 1561 1560 1559 1558 1557 1557 1556 1556 1554 1553 1550 1550
1471 1458 1459 1460 1470 1490 1472 1506 1499 1494 1491 1492 1496 1503 1509 1516 1523 1530 1535 1538 1542 1545 1549 1551 1554 1556 1558 1559 1560 1560 1560 1561 1561 1561 1559 1559 1559 1557 1557 1556 1555 1555 1554 1553 1552 1550 1550 1548 1546
1464 1453 1459 1458 1467 1474 1474 1492 1484 1483 1487 1486 1489 1495 1501 1509 1516 1523 1530 1535 1539 1542 1547 1548 1551 1554 1555 1556 1557 1557 1557 1557 1558 1558 1558 1558 1557 1556 1555 1554 1553 1553 1551 1550 1549 1547 1546 1545 1543
1452 1457 1454 1460 1469 1489 1471 1477 1495 1495 1483 1483 1489 1494 1499 1502 1509 1516 1522 1529 1536 1539 1544 1546 1547 1550 1552 1552 1553 1553 1554 1554 1555 1555 1556 1556 1556 1556 1555 1554 1552 1550 1549 1548 1546 1545 1544 1542 1541
1449 1464 1489 1498 1494 1492 1454 1469 1470 1465 1467 1475 1491 1502 1491 1495 1503 1511 1517 1522 1529 1534 1541 1542 1544 1546 1548 1550 1551 1551 1552 1552 1552 1553 1554 1554 1554 1554 1552 1551 1549 1548 1547 1546 1545 1543 1541 1540 1538
1452 1459 1478 1504 1489 1473 1448 1478 1467 1450 1454 1465 1475 1480 1481 1486 1492 1503 1512 1517 1523 1528 1535 1539 1541 1543 1545 1547 1548 1548 1548 1549 1550 1551 1551 1551 1551 1551 1550 1548 1547 1546 1545 1544 1543 1541 1539 1538 1537
1453 1464 1445 1460 1450 1466 1460 1453 1446 1448 1455 1460 1465 1472 1474 1483 1486 1493 1503 1511 1517 1524 1529 1535 1539 1540 1541 1543 1544 1545 1545 1546 1547 1547 1548 1548 1549 1547 1546 1545 1545 1544 1543 1542 1541 1539 1537 1536 1535
1440 1443 1468 1458 1487 1492 1462 1460 1457 1454 1458 1460 1465 1469 1473 1476 1479 1478 1494 1503 1511 1519 1525 1529 1536 1538 1539 1540 1541 1542 1543 1544 1544 1544 1544 1545 1545 1544 1543 1543 1542 1541 1540 1539 1537 1535 1534 1533 1531
1441 1449 1446 1447 1455 1476 1480 1481 1447 1453 1455 1459 1463 1468 1474 1476 1479 1483 1492 1499 1505 1514 1520 1524 1531 1535 1536 1537 1538 1540 1540 1541 1541 1541 1542 1542 1542 1541 1541 1540 1539 1538 1536 1535 1533 1531 1530 1529 1527
1427 1439 1444 1466 1471 1461 1464 1468 1438 1446 1453 1458 1462 1467 1471 1476 1479 1482 1490 1496 1502 1509 1516 1519 1526 1531 1534 1535 1536 1536 1537 1537 1539 1539 1539 1539 1539 1538 1537 1536 1535 1534 1533 1531 1529 1528 1526 1525 1523
Wind_Speed
2 10 10 13 6 11 14 16 16 15 17 17 31 19 15 11 9 15 20 22 16 11 16 18 19 20 20 20 20 21 21 22 23 22 21 18 16 15 14 13 12 11 9 8 7 7 7 7 7
8 5 13 12 6 15 13 18 18 14 11 27 30 30 30 26 34 27 21 17 16 16 14 17 19 19 18 18 18 19 20 21 21 20 19 17 16 15 14 13 12 10 8 7 7 7 8 8 8
16 12 13 6 11 15 14 15 11 15 14 24 29 27 21 25 21 20 25 21 21 16 14 17 18 18 18 17 17 18 18 18 17 16 15 14 14 15 13 11 9 7 6 5 5 6 7 7 8
26 15 20 14 20 19 18 17 18 21 23 25 24 15 30 28 29 28 26 21 21 16 14 17 17 16 15 15 15 16 16 15 14 12 11 11 12 12 11 9 8 6 5 5 5 6 6 7 7
6 9 6 15 18 17 17 22 19 16 23 25 27 21 30 29 28 24 22 20 19 15 17 18 18 16 15 14 13 14 14 12 12 11 10 8 9 8 7 6 6 5 4 4 4 5 7 8 9
4 9 7 15 18 19 17 17 20 23 29 25 25 27 28 26 22 23 19 22 19 17 14 17 17 16 14 13 13 14 14 12 11 9 7 7 7 6 4 3 2 3 4 4 5 7 9 10 10
8 9 10 21 23 13 7 22 18 21 26 23 26 22 25 23 21 23 17 28 20 17 13 15 14 12 13 12 12 12 12 11 9 7 5 5 5 3 1 2 3 3 4 7 9 11 11 11 11
21 4 11 2 22 11 17 18 26 23 18 25 27 15 21 23 24 25 20 20 19 16 12 9 12 12 12 12 11 10 11 10 9 7 5 3 2 2 4 5 5 6 10 11 12 12 12 11 11
47 8 8 8 16 20 23 17 21 19 20 17 13 29 28 25 24 24 24 20 18 16 14 13 11 9 8 8 12 10 10 10 9 7 3 1 4 9 4 7 7 9 9 11 9 11 10 9 9
7 2 14 10 13 21 34 9 19 13 15 16 22 28 27 25 21 23 19 14 16 14 11 12 11 8 10 8 5 5 5 7 6 3 3 2 2 7 6 9 7 6 8 7 7 8 10 8 12
4 11 7 19 18 35 37 22 24 31 15 20 30 31 27 24 20 17 19 17 17 9 17 13 14 10 11 14 5 3 1 1 4 3 4 6 7 9 5 9 7 7 11 8 8 7 10 5 7
6 15 15 11 22 15 19 32 26 34 16 22 26 27 25 23 20 17 15 15 14 13 12 12 6 12 8 4 6 6 8 8 6 7 5 7 7 7 7 6 9 4 7 12 14 8 8 11 10
9 14 9 13 20 22 23 20 22 27 16 24 25 24 22 20 17 16 14 14 14 14 11 11 11 13 12 13 10 8 7 7 7 7 8 2 7 9 9 10 10 8 9 8 12 12 10 12 12
12 12 10 16 13 13 16 18 20 18 22 23 22 20 19 17 16 15 14 15 14 13 12 11 11 11 16 15 14 12 13 8 11 9 11 13 12 11 13 13 9 10 9 13 13 12 15 15 13
10 10 9 12 18 13 21 16 15 19 19 21 20 18 17 14 14 14 14 14 14 13 13 13 10 10 9 12 13 16 11 8 7 11 13 14 13 16 16 17 15 15 15 18 16 13 15 16 14
13 14 11 16 21 6 9 11 15 18 18 19 18 18 16 14 13 12 14 14 14 14 14 15 13 12 10 10 11 12 13 12 10 13 13 12 13 16 19 17 18 18 18 19 19 17 15 16 16
14 13 14 13 23 12 4 11 17 20 18 17 18 17 17 14 16 17 16 15 16 15 13 13 13 12 13 8 10 10 9 8 10 13 14 12 15 19 20 19 19 18 18 17 15 16 19 21 22
17 18 20 13 13 15 14 11 14 21 20 18 18 16 17 18 16 16 15 12 15 13 12 11 13 7 7 8 6 10 11 14 13 14 17 18 20 22 19 18 17 17 18 19 19 20 21 24 25
15 12 17 14 22 25 13 16 18 21 21 19 21 19 19 18 21 17 17 15 19 16 12 11 10 12 13 13 8 8 9 8 8 10 12 15 15 14 13 13 13 12 15 18 17 20 24 22 22
19 9 11 15 17 11 17 17 17 17 20 23 23 21 21 21 22 21 19 16 16 16 11 11 10 10 8 5 5 6 7 6 10 9 11 11 9 9 14 12 17 14 17 19 16 22 26 24 21
15 10 10 14 12 4 8 20 11 14 18 22 22 23 23 24 25 25 23 21 19 17 16 15 12 7 6 6 5 5 2 6 7 4 2 3 9 13 13 14 14 16 16 12 16 18 20 20 18
18 12 18 16 13 11 15 13 18 22 17 16 25 26 26 27 27 26 25 24 22 20 18 16 15 11 7 7 5 9 10 8 8 10 10 15 19 20 16 14 11 13 16 13 15 18 16 17 18
13 16 17 12 12 14 14 9 15 16 17 17 25 28 28 29 29 29 27 24 23 21 21 19 16 14 13 6 9 8 6 8 5 8 12 16 8 12 14 9 13 16 14 13 18 17 16 16 18
18 9 14 8 11 14 17 12 6 10 18 18 13 29 29 29 29 29 30 30 26 24 21 18 21 14 8 4 0 1 2 6 9 10 9 4 7 6 10 12 17 16 11 12 16 16 16 16 17
14 12 8 10 11 13 16 15 11 19 19 20 21 44 30 28 28 26 30 34 30 27 24 23 20 13 8 5 4 3 4 5 4 4 4 9 5 6 11 16 16 11 11 13 13 15 12 13 15
13 16 10 13 11 13 13 9 16 14 24 33 37 44 33 33 31 31 28 33 33 29 26 23 20 16 11 9 8 5 3 2 2 6 11 12 7 6 12 15 10 13 12 14 15 14 13 13 14
16 17 18 18 14 7 6 9 10 8 7 4 8 12 27 25 32 34 31 34 34 30 30 26 23 18 14 12 8 3 3 4 6 12 14 5 6 8 9 11 15 12 13 16 16 16 14 13 12
17 17 13 12 10 11 8 10 10 15 9 10 8 6 9 30 35 35 33 35 35 32 30 28 26 21 15 14 7 1 4 7 7 6 7 8 9 11 13 14 12 12 14 16 16 18 16 17 18
15 12 9 13 11 9 10 4 13 11 9 7 7 9 5 12 21 26 27 33 36 32 31 30 26 24 19 16 11 11 10 7 8 8 7 8 10 12 14 15 15 17 16 18 18 20 19 16 17
20 17 11 9 9 8 10 4 13 11 11 10 7 1 6 4 16 28 27 30 34 32 31 30 26 24 20 17 12 9 8 6 10 10 8 10 12 12 14 15 16 18 18 20 20 19 19 19 22
Wind_Direction
308 350 335 273 226 81 70 44 80 77 64 98 136 87 142 236 121 110 130 125 118 125 120 115 113 114 114 114 115 115 119 117 115 116 113 113 118 120 121 113 111 112 96 85 82 69 60 50 36
305 288 275 262 109 85 66 64 64 76 101 81 84 81 75 74 95 115 124 124 118 113 124 118 116 114 112 114 115 117 121 123 118 112 108 105 107 114 116 115 113 105 89 77 62 52 39 31 20
337 304 258 154 86 88 93 96 91 104 74 82 76 83 93 106 108 115 123 129 121 134 129 125 120 119 116 116 117 123 126 129 128 117 113 106 109 113 115 113 109 99 95 77 59 43 34 22 16
355 338 244 88 88 96 103 101 86 85 81 97 102 73 89 102 111 122 134 123 131 124 137 132 130 130 126 119 124 131 132 132 137 127 112 112 106 106 107 106 99 90 76 66 42 25 15 5 3
105 296 117 110 104 99 95 104 101 97 92 97 101 102 97 106 118 121 123 124 125 125 129 127 126 125 126 126 130 139 144 139 137 135 120 121 123 112 104 93 84 68 48 22 20 6 348 341 341
89 252 136 104 105 45 104 86 98 100 104 107 108 110 109 121 118 133 118 128 125 128 135 131 132 126 129 137 138 148 151 144 141 134 126 128 134 129 122 99 58 12 355 354 339 326 322 327 332
323 276 59 80 86 61 292 117 103 107 120 118 120 117 128 132 129 130 124 133 123 130 134 131 137 139 134 138 144 150 161 167 159 152 139 134 134 146 131 12 2 349 334 321 320 319 321 326 330
254 227 108 223 131 160 214 119 131 132 127 133 132 132 144 137 142 130 132 121 128 127 130 134 139 141 147 147 146 151 157 169 173 170 157 129 116 127 59 348 304 331 321 317 319 328 332 339 335
207 291 101 42 103 147 125 115 93 109 130 148 138 143 142 143 143 132 133 138 129 139 142 148 129 121 134 146 155 164 172 176 180 179 166 108 15 285 96 309 305 352 335 333 338 354 359 350 338
181 151 134 167 133 85 359 313 119 134 132 127 121 134 144 147 153 142 156 140 154 154 153 151 143 170 151 162 147 169 181 193 206 208 261 12 339 298 325 298 292 332 352 352 334 348 343 350 10
334 90 87 105 104 131 174 78 89 356 141 130 136 144 150 151 155 159 146 152 152 141 157 161 173 134 162 188 133 127 336 250 281 285 249 248 254 279 314 323 353 338 343 349 313 326 333 332 333
102 58 75 79 63 8 70 88 114 149 236 136 144 147 150 154 157 161 158 153 153 162 155 161 150 148 191 167 166 203 217 222 260 262 258 266 274 256 270 260 287 305 297 276 284 292 264 272 297
113 87 85 101 132 77 70 68 137 178 163 137 141 149 152 155 161 164 166 167 160 169 169 166 186 189 196 180 188 204 200 195 261 251 289 278 284 280 286 283 270 280 260 275 305 297 280 274 275
105 139 167 103 84 114 113 104 112 114 129 133 145 150 155 161 167 168 174 172 177 181 184 183 211 226 210 201 198 202 210 224 221 244 249 256 256 270 270 266 280 273 273 271 268 287 302 277 278
134 133 127 144 111 64 113 100 113 130 139 146 148 153 157 161 171 174 183 180 183 186 193 202 203 238 245 219 212 211 201 236 247 248 273 270 269 269 269 266 275 276 274 283 295 304 310 302 301
169 164 177 144 104 67 69 115 134 151 153 151 161 156 154 157 171 179 186 187 190 195 200 209 227 234 242 260 247 234 224 207 245 260 264 284 271 281 275 277 282 282 280 284 283 279 279 280 288
206 199 151 132 124 144 145 163 160 164 167 167 166 156 158 165 164 158 166 189 191 202 204 198 218 231 245 260 255 241 234 249 241 256 258 262 256 264 271 277 281 284 286 289 292 289 286 287 281
201 210 161 173 173 148 177 158 171 174 163 169 174 168 169 170 171 168 168 161 183 179 179 207 207 198 217 245 240 227 235 244 243 246 255 244 256 267 273 277 278 280 287 289 294 290 288 290 295
214 227 155 234 159 162 162 175 180 182 160 174 172 177 178 176 163 165 172 165 168 174 180 188 193 196 223 237 243 248 255 265 273 268 265 279 288 286 290 299 299 309 310 304 304 304 299 293 291
240 214 214 205 154 186 159 174 188 186 172 175 180 183 186 174 163 169 166 174 167 172 173 180 201 219 206 228 260 277 278 288 304 291 293 292 297 292 300 295 285 267 274 271 287 300 294 294 289
250 242 239 210 150 170 216 155 131 261 193 176 186 186 186 178 172 174 174 177 175 176 179 184 195 209 199 218 277 291 320 296 294 276 237 234 267 268 277 282 282 288 289 292 290 284 292 294 293
231 213 261 238 178 211 178 231 169 216 190 194 191 186 190 184 178 179 182 182 180 180 182 192 185 189 217 212 184 249 266 281 272 284 280 273 281 292 302 295 305 292 287 288 293 293 295 296 300
236 222 230 238 245 234 235 232 156 181 192 199 202 190 195 186 188 184 187 185 184 177 178 194 181 185 206 247 212 234 247 235 240 277 272 291 332 325 327 309 278 299 299 285 286 299 304 305 299
222 260 202 228 254 255 228 222 153 188 208 214 219 204 196 191 190 191 186 182 185 176 183 184 194 194 195 227 217 313 277 254 245 244 259 327 276 304 289 271 293 307 314 309 300 302 306 307 308
206 208 206 225 229 242 233 223 237 185 215 207 163 230 200 194 191 193 184 178 182 179 184 193 201 187 190 183 183 212 245 250 311 339 304 271 327 291 288 293 305 318 321 320 321 316 324 328 319
188 222 217 208 230 232 207 186 223 190 179 197 202 213 198 194 193 187 192 181 178 179 187 195 205 191 197 183 196 224 273 161 242 272 236 277 277 274 296 312 313 321 320 319 315 328 327 323 330
185 235 248 263 270 255 192 197 221 160 163 158 181 217 194 198 191 187 187 183 177 182 191 202 215 199 198 194 210 259 313 327 212 243 263 279 276 275 273 277 295 322 325 305 306 314 315 308 312
219 206 233 252 266 284 246 235 219 155 155 170 185 225 228 194 198 190 187 181 182 184 194 202 218 210 200 195 225 194 259 268 283 279 287 285 288 293 295 292 295 296 293 299 291 290 283 289 296
212 231 217 250 232 265 260 71 102 138 153 145 162 186 210 254 213 190 189 190 183 186 195 201 215 213 206 192 200 203 234 230 249 272 280 280 279 282 290 293 292 299 303 299 297 295 302 299 294
230 202 232 247 255 272 294 298 138 140 147 168 126 200 156 260 280 181 188 186 178 184 192 200 207 213 208 201 205 230 252 226 223 250 266 271 280 282 281 290 294 296 295 296 289 297 287 284 295